Tracking 20942 objects as of 13-Jul-2020
HD Live streaming from Space Station
objects crossing your sky now

MOZHAYETS 4

Track MOZHAYETS 4 now!
10-day predictions
MOZHAYETS 4 is classified as:


NORAD ID: 27939
Int'l Code: 2003-042A
Perigee: 670.0 km
Apogee: 686.4 km
Inclination: 98.1 °
Period: 98.2 minutes
Semi major axis: 7049 km
RCS: 0.7646 m2 (medium)
Launch date: September 27, 2003
Source: Commonwealth of Independent States (former USSR) (CIS)
Launch site: PLESETSK MISSILE AND SPACE COMPLEX (PKMTR)

Uplink (MHz):
Downlink (MHz): 432.098/435.352
Beacon (MHz):
Mode:
Call sign:
Status: Active

aabbcc
Your satellite tracking list
Your tracking list is empty




NASA's NSSDC Master Catalog

Two Line Element Set (TLE):
1 27939U 03042A   20195.51197852  .00000045  00000-0  16742-4 0  9997
2 27939  98.0944 329.9909 0011633 270.9503  89.0367 14.66871472897831
Source of the keplerian elements: Caltech